Time,TemperatureF,DewpointF,PressureIn,WindDirection,WindDirectionDegrees,WindSpeedMPH,WindSpeedGustMPH,Humidity,HourlyPrecipIn,Conditions,Clouds,dailyrainin,SoftwareType,DateUTC
2013-08-14 00:01:00,67.8,62.8,29.98,East,79,1.2,0.0,84,0.00,CLR,,0.00,WeatherDisplay:10.37,2013-08-14 05:01:00,
2013-08-14 00:06:00,67.6,62.6,29.99,East,79,0.0,0.0,84,0.00,CLR,,0.00,WeatherDisplay:10.37,2013-08-14 05:06:00,
2013-08-14 00:11:00,67.5,62.5,29.99,East,79,1.2,0.0,84,0.00,CLR,,0.00,WeatherDisplay:10.37,2013-08-14 05:11:00,
2013-08-14 00:16:00,67.4,62.4,29.99,East,79,0.0,0.0,84,0.00,CLR,,0.00,WeatherDisplay:10.37,2013-08-14 05:16:00,
2013-08-14 00:21:00,67.3,62.3,29.99,East,79,0.0,0.0,84,0.00,CLR,,0.00,WeatherDisplay:10.37,2013-08-14 05:21:00,
2013-08-14 00:26:00,67.2,62.2,29.99,East,79,0.0,0.0,84,0.00,CLR,,0.00,WeatherDisplay:10.37,2013-08-14 05:26:00,
2013-08-14 00:31:00,67.0,62.3,29.99,East,79,0.0,0.0,85,0.00,CLR,,0.00,WeatherDisplay:10.37,2013-08-14 05:31:00,
2013-08-14 00:36:00,66.7,62.0,29.99,East,79,0.0,0.0,85,0.00,CLR,,0.00,WeatherDisplay:10.37,2013-08-14 05:36:00,
2013-08-14 00:41:00,66.4,62.1,30.00,East,79,0.0,0.0,86,0.00,CLR,,0.00,WeatherDisplay:10.37,2013-08-14 05:41:00,
2013-08-14 00:46:00,66.2,61.6,29.99,East,79,0.0,0.0,85,0.00,CLR,,0.00,WeatherDisplay:10.37,2013-08-14 05:46:00,
2013-08-14 00:51:00,66.2,61.6,29.99,East,79,0.0,0.0,85,0.00,CLR,,0.00,WeatherDisplay:10.37,2013-08-14 05:51:00,
2013-08-14 00:56:00,66.3,61.3,29.99,East,79,0.0,0.0,84,0.00,CLR,,0.00,WeatherDisplay:10.37,2013-08-14 05:56:00,
2013-08-14 01:01:00,66.4,61.1,29.99,East,79,0.0,0.0,83,0.00,CLR,,0.00,WeatherDisplay:10.37,2013-08-14 06:01:00,
2013-08-14 01:06:00,66.4,61.1,29.99,East,79,0.0,0.0,83,0.00,CLR,,0.00,WeatherDisplay:10.37,2013-08-14 06:06:00,
2013-08-14 01:11:00,66.4,61.1,29.99,East,79,0.0,0.0,83,0.00,CLR,,0.00,WeatherDisplay:10.37,2013-08-14 06:11:00,
2013-08-14 01:16:00,66.4,60.7,29.99,East,79,0.0,0.0,82,0.00,CLR,,0.00,WeatherDisplay:10.37,2013-08-14 06:16:00,
2013-08-14 01:21:00,66.4,60.7,29.99,East,79,0.0,0.0,82,0.00,CLR,,0.00,WeatherDisplay:10.37,2013-08-14 06:21:00,
2013-08-14 01:26:00,66.5,60.8,29.99,East,79,0.0,0.0,82,0.00,CLR,,0.00,WeatherDisplay:10.37,2013-08-14 06:26:00,
2013-08-14 01:31:00,66.6,60.9,29.99,East,79,1.2,0.0,82,0.00,CLR,,0.00,WeatherDisplay:10.37,2013-08-14 06:31:00,
2013-08-14 01:36:00,66.7,61.0,29.99,East,79,0.0,0.0,82,0.00,CLR,,0.00,WeatherDisplay:10.37,2013-08-14 06:36:00,
2013-08-14 01:41:00,66.7,61.0,29.99,East,79,0.0,0.0,82,0.00,CLR,,0.00,WeatherDisplay:10.37,2013-08-14 06:41:00,
2013-08-14 01:46:00,66.7,60.7,29.99,East,79,1.2,0.0,81,0.00,CLR,,0.00,WeatherDisplay:10.37,2013-08-14 06:46:00,
2013-08-14 01:51:00,66.7,60.7,29.99,East,79,0.0,0.0,81,0.00,CLR,,0.00,WeatherDisplay:10.37,2013-08-14 06:51:00,
2013-08-14 01:56:00,66.7,60.7,29.99,East,79,1.2,0.0,81,0.00,CLR,,0.00,WeatherDisplay:10.37,2013-08-14 06:56:00,
2013-08-14 02:01:00,66.7,60.7,30.00,East,79,1.2,1.2,81,0.00,CLR,,0.00,WeatherDisplay:10.37,2013-08-14 07:01:00,
2013-08-14 02:06:00,66.6,60.6,29.99,East,79,1.2,1.2,81,0.00,CLR,,0.00,WeatherDisplay:10.37,2013-08-14 07:06:00,
2013-08-14 02:11:00,66.5,60.5,30.00,East,79,2.0,2.0,81,0.00,CLR,,0.00,WeatherDisplay:10.37,2013-08-14 07:11:00,
2013-08-14 02:16:00,66.5,60.8,29.99,East,79,0.0,0.0,82,0.00,CLR,,0.00,WeatherDisplay:10.37,2013-08-14 07:16:00,
2013-08-14 02:22:00,66.4,60.4,30.00,East,79,0.0,0.4,81,0.00,CLR,,0.00,WeatherDisplay:10.37,2013-08-14 07:22:00,
2013-08-14 02:27:00,66.4,60.4,29.99,East,79,0.0,0.0,81,0.00,CLR,,0.00,WeatherDisplay:10.37,2013-08-14 07:27:00,
2013-08-14 02:32:00,66.3,60.6,29.99,East,79,0.0,0.1,82,0.00,CLR,,0.00,WeatherDisplay:10.37,2013-08-14 07:32:00,
2013-08-14 02:37:00,66.2,60.5,29.99,East,79,0.0,0.0,82,0.00,CLR,,0.00,WeatherDisplay:10.37,2013-08-14 07:37:00,
2013-08-14 02:42:00,66.1,60.4,30.00,East,79,1.2,1.2,82,0.00,CLR,,0.00,WeatherDisplay:10.37,2013-08-14 07:42:00,
2013-08-14 02:47:00,66.1,60.4,30.00,East,79,0.0,0.0,82,0.00,CLR,,0.00,WeatherDisplay:10.37,2013-08-14 07:47:00,
2013-08-14 02:53:00,66.0,60.3,30.00,East,79,0.0,0.1,82,0.00,CLR,,0.00,WeatherDisplay:10.37,2013-08-14 07:53:00,
2013-08-14 02:58:00,66.0,60.3,30.00,East,79,0.0,0.0,82,0.00,CLR,,0.00,WeatherDisplay:10.37,2013-08-14 07:58:00,
2013-08-14 03:03:00,65.9,60.2,30.00,East,79,0.0,0.0,82,0.00,CLR,,0.00,WeatherDisplay:10.37,2013-08-14 08:03:00,
2013-08-14 03:08:00,65.8,60.2,30.00,East,79,0.0,0.0,82,0.00,CLR,,0.00,WeatherDisplay:10.37,2013-08-14 08:08:00,
2013-08-14 03:13:00,65.7,60.1,30.00,East,79,1.2,1.2,82,0.00,CLR,,0.00,WeatherDisplay:10.37,2013-08-14 08:13:00,
2013-08-14 03:18:00,65.6,60.0,30.00,East,79,0.0,0.0,82,0.00,CLR,,0.00,WeatherDisplay:10.37,2013-08-14 08:18:00,
2013-08-14 03:23:00,65.5,60.2,30.00,East,79,0.0,0.0,83,0.00,CLR,,0.00,WeatherDisplay:10.37,2013-08-14 08:23:00,
2013-08-14 03:28:00,65.4,60.1,30.00,East,79,1.2,1.2,83,0.00,CLR,,0.00,WeatherDisplay:10.37,2013-08-14 08:28:00,
2013-08-14 03:33:00,65.3,60.0,30.01,East,79,1.2,0.0,83,0.00,CLR,,0.00,WeatherDisplay:10.37,2013-08-14 08:33:00,
2013-08-14 03:38:00,65.2,59.9,30.01,East,79,1.2,1.2,83,0.00,CLR,,0.00,WeatherDisplay:10.37,2013-08-14 08:38:00,
2013-08-14 03:43:00,65.1,60.1,30.01,East,79,1.2,0.0,84,0.00,CLR,,0.00,WeatherDisplay:10.37,2013-08-14 08:43:00,
2013-08-14 03:48:00,65.0,59.7,30.01,East,79,1.2,1.2,83,0.00,CLR,,0.00,WeatherDisplay:10.37,2013-08-14 08:48:00,
2013-08-14 03:53:00,65.0,60.0,30.01,East,79,1.0,1.0,84,0.00,CLR,,0.00,WeatherDisplay:10.37,2013-08-14 08:53:00,
2013-08-14 03:58:00,65.0,60.0,30.01,East,79,1.2,0.0,84,0.00,CLR,,0.00,WeatherDisplay:10.37,2013-08-14 08:58:00,
2013-08-14 04:03:00,64.9,59.9,30.01,East,79,0.0,0.0,84,0.00,CLR,,0.00,WeatherDisplay:10.37,2013-08-14 09:03:00,
2013-08-14 04:08:00,64.8,59.9,30.01,East,79,0.0,0.1,84,0.00,CLR,,0.00,WeatherDisplay:10.37,2013-08-14 09:08:00,
2013-08-14 04:13:00,64.8,59.9,30.01,East,79,0.0,0.0,84,0.00,CLR,,0.00,WeatherDisplay:10.37,2013-08-14 09:13:00,
2013-08-14 04:18:00,64.7,59.8,30.01,East,79,0.0,0.0,84,0.00,CLR,,0.00,WeatherDisplay:10.37,2013-08-14 09:18:00,
2013-08-14 04:23:00,64.5,59.9,30.01,East,79,0.0,0.0,85,0.00,CLR,,0.00,WeatherDisplay:10.37,2013-08-14 09:23:00,
2013-08-14 04:28:00,64.5,59.9,30.01,East,79,1.2,1.2,85,0.00,CLR,,0.00,WeatherDisplay:10.37,2013-08-14 09:28:00,
2013-08-14 04:33:00,64.4,59.8,30.02,East,79,0.0,0.0,85,0.00,CLR,,0.00,WeatherDisplay:10.37,2013-08-14 09:33:00,
2013-08-14 04:38:00,64.3,59.7,30.01,East,79,0.0,0.0,85,0.00,CLR,,0.00,WeatherDisplay:10.37,2013-08-14 09:38:00,
2013-08-14 04:43:00,64.2,59.6,30.01,East,79,0.0,0.1,85,0.00,CLR,,0.00,WeatherDisplay:10.37,2013-08-14 09:43:00,
2013-08-14 04:48:00,64.2,59.6,30.02,East,79,0.0,0.0,85,0.00,CLR,,0.00,WeatherDisplay:10.37,2013-08-14 09:48:00,
2013-08-14 04:53:00,64.1,59.5,30.02,East,79,0.0,0.0,85,0.00,CLR,,0.00,WeatherDisplay:10.37,2013-08-14 09:53:00,
2013-08-14 04:58:00,64.0,59.4,30.02,East,79,0.0,0.0,85,0.00,CLR,,0.00,WeatherDisplay:10.37,2013-08-14 09:58:00,
2013-08-14 05:03:00,63.9,59.6,30.02,East,79,0.0,0.0,86,0.00,CLR,,0.00,WeatherDisplay:10.37,2013-08-14 10:03:00,
2013-08-14 05:08:00,63.8,59.2,30.02,East,79,0.0,0.0,85,0.00,CLR,,0.00,WeatherDisplay:10.37,2013-08-14 10:08:00,
2013-08-14 05:13:00,63.8,59.5,30.02,East,79,0.0,0.0,86,0.00,CLR,,0.00,WeatherDisplay:10.37,2013-08-14 10:13:00,
2013-08-14 05:18:00,63.7,59.4,30.01,East,79,1.2,1.2,86,0.00,CLR,,0.00,WeatherDisplay:10.37,2013-08-14 10:18:00,
2013-08-14 05:23:00,63.7,59.4,30.02,East,79,1.2,0.0,86,0.00,CLR,,0.00,WeatherDisplay:10.37,2013-08-14 10:23:00,
2013-08-14 05:28:00,63.6,59.3,30.02,East,79,0.0,0.0,86,0.00,CLR,,0.00,WeatherDisplay:10.37,2013-08-14 10:28:00,
2013-08-14 05:33:00,63.5,59.2,30.02,East,79,0.0,0.0,86,0.00,CLR,,0.00,WeatherDisplay:10.37,2013-08-14 10:33:00,
2013-08-14 05:38:00,63.4,59.1,30.02,East,79,3.5,3.5,86,0.00,CLR,,0.00,WeatherDisplay:10.37,2013-08-14 10:38:00,
2013-08-14 05:43:00,63.4,59.1,30.02,East,79,0.0,0.0,86,0.00,CLR,,0.00,WeatherDisplay:10.37,2013-08-14 10:43:00,
2013-08-14 05:48:00,63.4,59.1,30.02,East,79,0.0,0.0,86,0.00,CLR,,0.00,WeatherDisplay:10.37,2013-08-14 10:48:00,
2013-08-14 05:53:00,63.4,59.1,30.02,East,79,1.2,0.0,86,0.00,CLR,,0.00,WeatherDisplay:10.37,2013-08-14 10:53:00,
2013-08-14 05:58:00,63.5,59.2,30.02,East,79,1.2,0.0,86,0.00,CLR,,0.00,WeatherDisplay:10.37,2013-08-14 10:58:00,
2013-08-14 06:03:00,63.6,59.0,30.02,East,79,4.6,0.0,85,0.00,CLR,,0.00,WeatherDisplay:10.37,2013-08-14 11:03:00,
2013-08-14 06:08:00,63.5,58.9,30.02,East,79,1.2,0.0,85,0.00,CLR,,0.00,WeatherDisplay:10.37,2013-08-14 11:08:00,
2013-08-14 06:13:00,63.5,58.9,30.02,East,79,1.2,0.0,85,0.00,CLR,,0.00,WeatherDisplay:10.37,2013-08-14 11:13:00,
2013-08-14 06:18:00,63.4,58.8,30.03,East,79,2.3,2.3,85,0.00,CLR,,0.00,WeatherDisplay:10.37,2013-08-14 11:18:00,
2013-08-14 06:23:00,63.3,58.7,30.03,East,79,3.0,3.0,85,0.00,CLR,,0.00,WeatherDisplay:10.37,2013-08-14 11:23:00,
2013-08-14 06:28:00,63.3,58.7,30.03,East,79,1.2,0.0,85,0.00,CLR,,0.00,WeatherDisplay:10.37,2013-08-14 11:28:00,
2013-08-14 06:33:00,63.2,58.6,30.03,East,79,1.2,1.2,85,0.00,CLR,,0.00,WeatherDisplay:10.37,2013-08-14 11:33:00,
2013-08-14 06:38:00,63.1,58.5,30.03,East,79,2.3,2.5,85,0.00,CLR,,0.00,WeatherDisplay:10.37,2013-08-14 11:38:00,
2013-08-14 06:43:00,63.1,58.5,30.03,East,79,4.6,4.6,85,0.00,CLR,,0.00,WeatherDisplay:10.37,2013-08-14 11:43:00,
2013-08-14 06:48:00,63.1,58.5,30.03,East,79,3.5,3.5,85,0.00,CLR,,0.00,WeatherDisplay:10.37,2013-08-14 11:48:00,
2013-08-14 06:53:00,63.1,58.5,30.03,East,79,3.5,3.5,85,0.00,CLR,,0.00,WeatherDisplay:10.37,2013-08-14 11:53:00,
2013-08-14 06:58:00,63.1,58.2,30.04,East,79,1.2,1.2,84,0.00,CLR,,0.00,WeatherDisplay:10.37,2013-08-14 11:58:00,
2013-08-14 07:03:00,63.1,58.2,30.03,East,79,3.5,3.5,84,0.00,CLR,,0.00,WeatherDisplay:10.37,2013-08-14 12:03:00,
2013-08-14 07:08:00,63.1,58.2,30.04,East,79,3.5,3.5,84,0.00,CLR,,0.00,WeatherDisplay:10.37,2013-08-14 12:08:00,
2013-08-14 07:13:00,63.1,58.2,30.04,East,79,0.0,0.0,84,0.00,CLR,,0.00,WeatherDisplay:10.37,2013-08-14 12:13:00,
2013-08-14 07:18:00,63.1,58.2,30.04,East,79,3.0,3.0,84,0.00,CLR,,0.00,WeatherDisplay:10.37,2013-08-14 12:18:00,
2013-08-14 07:23:00,63.2,58.3,30.04,East,79,0.0,0.0,84,0.00,CLR,,0.00,WeatherDisplay:10.37,2013-08-14 12:23:00,
2013-08-14 07:28:00,63.3,58.4,30.04,East,79,0.0,0.0,84,0.00,CLR,,0.00,WeatherDisplay:10.37,2013-08-14 12:28:00,
2013-08-14 07:33:00,63.4,58.5,30.05,East,79,4.6,4.6,84,0.00,CLR,,0.00,WeatherDisplay:10.37,2013-08-14 12:33:00,
2013-08-14 07:38:00,63.5,58.6,30.05,East,79,6.9,6.9,84,0.00,CLR,,0.00,WeatherDisplay:10.37,2013-08-14 12:38:00,
2013-08-14 07:43:00,63.7,58.4,30.05,East,79,4.6,4.6,83,0.00,CLR,,0.00,WeatherDisplay:10.37,2013-08-14 12:43:00,
2013-08-14 07:48:00,63.8,58.5,30.05,East,79,4.6,4.6,83,0.00,CLR,,0.00,WeatherDisplay:10.37,2013-08-14 12:48:00,
2013-08-14 07:54:00,64.0,58.7,30.05,East,79,2.3,0.0,83,0.00,CLR,,0.00,WeatherDisplay:10.37,2013-08-14 12:54:00,
2013-08-14 07:59:00,64.1,58.5,30.05,East,79,5.8,0.0,82,0.00,CLR,,0.00,WeatherDisplay:10.37,2013-08-14 12:59:00,
2013-08-14 08:04:00,64.3,58.7,30.05,East,79,9.2,9.2,82,0.00,CLR,,0.00,WeatherDisplay:10.37,2013-08-14 13:04:00,
2013-08-14 08:09:00,64.4,58.4,30.05,East,79,4.6,4.6,81,0.00,CLR,,0.00,WeatherDisplay:10.37,2013-08-14 13:09:00,
2013-08-14 08:14:00,64.5,58.5,30.05,East,79,1.2,1.2,81,0.00,CLR,,0.00,WeatherDisplay:10.37,2013-08-14 13:14:00,
2013-08-14 08:19:00,64.8,58.5,30.05,East,79,7.0,7.0,80,0.00,CLR,,0.00,WeatherDisplay:10.37,2013-08-14 13:19:00,
2013-08-14 08:24:00,64.9,58.6,30.06,East,79,6.9,6.9,80,0.00,CLR,,0.00,WeatherDisplay:10.37,2013-08-14 13:24:00,
2013-08-14 08:29:00,65.2,58.9,30.06,East,79,3.5,3.5,80,0.00,CLR,,0.00,WeatherDisplay:10.37,2013-08-14 13:29:00,
2013-08-14 08:34:00,65.4,58.7,30.06,East,79,11.5,11.5,79,0.00,CLR,,0.00,WeatherDisplay:10.37,2013-08-14 13:34:00,
2013-08-14 08:39:00,65.7,58.7,30.06,East,79,10.4,10.4,78,0.00,CLR,,0.00,WeatherDisplay:10.37,2013-08-14 13:39:00,
2013-08-14 08:44:00,65.9,59.2,30.06,East,79,4.6,4.6,79,0.00,CLR,,0.00,WeatherDisplay:10.37,2013-08-14 13:44:00,
2013-08-14 08:49:00,66.3,59.2,30.06,East,79,5.0,5.0,78,0.00,CLR,,0.00,WeatherDisplay:10.37,2013-08-14 13:49:00,
2013-08-14 08:54:00,66.6,59.5,30.06,East,79,4.6,4.6,78,0.00,CLR,,0.00,WeatherDisplay:10.37,2013-08-14 13:54:00,
2013-08-14 08:59:00,66.9,59.1,30.06,East,79,2.3,2.3,76,0.00,CLR,,0.00,WeatherDisplay:10.37,2013-08-14 13:59:00,
2013-08-14 09:04:00,67.2,59.4,30.06,East,79,1.2,0.0,76,0.00,CLR,,0.00,WeatherDisplay:10.37,2013-08-14 14:04:00,
2013-08-14 09:09:00,67.7,59.5,30.06,East,79,4.6,4.6,75,0.00,CLR,,0.00,WeatherDisplay:10.37,2013-08-14 14:09:00,
2013-08-14 09:14:00,68.0,59.8,30.06,East,79,3.5,3.5,75,0.00,CLR,,0.00,WeatherDisplay:10.37,2013-08-14 14:14:00,
2013-08-14 09:19:00,68.5,59.9,30.06,East,79,1.2,1.2,74,0.00,CLR,,0.00,WeatherDisplay:10.37,2013-08-14 14:19:00,
2013-08-14 09:24:00,69.0,60.4,30.06,East,79,1.2,0.0,74,0.00,CLR,,0.00,WeatherDisplay:10.37,2013-08-14 14:24:00,
2013-08-14 09:29:00,69.0,59.2,30.06,East,79,8.1,8.1,71,0.00,CLR,,0.00,WeatherDisplay:10.37,2013-08-14 14:29:00,
2013-08-14 09:34:00,69.2,60.2,30.06,East,79,3.5,3.5,73,0.00,CLR,,0.00,WeatherDisplay:10.37,2013-08-14 14:34:00,
2013-08-14 09:39:00,69.6,60.6,30.06,East,79,2.0,2.0,73,0.00,CLR,,0.00,WeatherDisplay:10.37,2013-08-14 14:39:00,
2013-08-14 09:44:00,70.2,60.4,30.06,East,79,8.1,8.1,71,0.00,CLR,,0.00,WeatherDisplay:10.37,2013-08-14 14:44:00,
2013-08-14 09:49:00,70.3,60.1,30.06,East,79,4.6,4.6,70,0.00,CLR,,0.00,WeatherDisplay:10.37,2013-08-14 14:49:00,
2013-08-14 09:54:00,70.2,60.0,30.06,East,79,8.0,8.0,70,0.00,CLR,,0.00,WeatherDisplay:10.37,2013-08-14 14:54:00,
2013-08-14 09:59:00,70.6,60.3,30.06,East,79,3.5,3.5,70,0.00,CLR,,0.00,WeatherDisplay:10.37,2013-08-14 14:59:00,
2013-08-14 10:04:00,70.7,60.0,30.06,East,79,2.3,2.3,69,0.00,CLR,,0.00,WeatherDisplay:10.37,2013-08-14 15:04:00,
2013-08-14 10:09:00,70.9,59.4,30.06,East,79,6.9,6.9,67,0.00,CLR,,0.00,WeatherDisplay:10.37,2013-08-14 15:09:00,
2013-08-14 10:14:00,71.1,60.4,30.06,East,79,0.0,0.0,69,0.00,CLR,,0.00,WeatherDisplay:10.37,2013-08-14 15:14:00,
2013-08-14 10:19:00,71.6,60.1,30.06,East,79,3.5,3.5,67,0.00,CLR,,0.00,WeatherDisplay:10.37,2013-08-14 15:19:00,
2013-08-14 10:24:00,72.3,61.1,30.07,East,79,1.2,0.0,68,0.00,CLR,,0.00,WeatherDisplay:10.37,2013-08-14 15:24:00,
2013-08-14 10:29:00,72.7,60.3,30.07,East,79,3.5,3.5,65,0.00,CLR,,0.00,WeatherDisplay:10.37,2013-08-14 15:29:00,
2013-08-14 10:34:00,73.0,61.4,30.07,East,79,1.2,1.2,67,0.00,CLR,,0.00,WeatherDisplay:10.37,2013-08-14 15:34:00,
2013-08-14 10:39:00,73.5,60.1,30.07,East,79,3.5,3.5,63,0.00,CLR,,0.00,WeatherDisplay:10.37,2013-08-14 15:39:00,
2013-08-14 10:44:00,74.0,61.0,30.07,East,79,0.0,0.0,64,0.00,CLR,,0.00,WeatherDisplay:10.37,2013-08-14 15:44:00,
2013-08-14 10:49:00,74.3,60.9,30.07,East,79,4.6,4.6,63,0.00,CLR,,0.00,WeatherDisplay:10.37,2013-08-14 15:49:00,
2013-08-14 10:54:00,74.0,60.6,30.07,East,79,8.1,8.1,63,0.00,CLR,,0.00,WeatherDisplay:10.37,2013-08-14 15:54:00,
2013-08-14 10:59:00,74.2,60.8,30.07,East,79,3.5,3.5,63,0.00,CLR,,0.00,WeatherDisplay:10.37,2013-08-14 15:59:00,
2013-08-14 11:04:00,74.2,61.7,30.07,East,79,3.5,3.5,65,0.00,CLR,,0.00,WeatherDisplay:10.37,2013-08-14 16:04:00,
2013-08-14 11:09:00,74.4,61.0,30.07,East,79,2.3,2.3,63,0.00,CLR,,0.00,WeatherDisplay:10.37,2013-08-14 16:09:00,
2013-08-14 11:14:00,74.5,61.1,30.07,East,79,3.5,3.5,63,0.00,CLR,,0.00,WeatherDisplay:10.37,2013-08-14 16:14:00,
2013-08-14 11:19:00,74.8,61.4,30.07,East,79,0.0,0.3,63,0.00,CLR,,0.00,WeatherDisplay:10.37,2013-08-14 16:19:00,
2013-08-14 11:25:00,75.5,61.6,30.07,East,79,3.5,3.5,62,0.00,CLR,,0.00,WeatherDisplay:10.37,2013-08-14 16:25:00,
2013-08-14 11:30:00,76.1,62.1,30.07,East,79,1.2,0.0,62,0.00,CLR,,0.00,WeatherDisplay:10.37,2013-08-14 16:30:00,
2013-08-14 11:35:00,76.3,61.9,30.06,East,79,0.0,0.8,61,0.00,CLR,,0.00,WeatherDisplay:10.37,2013-08-14 16:35:00,
2013-08-14 11:40:00,76.2,62.2,30.06,East,79,1.2,1.2,62,0.00,CLR,,0.00,WeatherDisplay:10.37,2013-08-14 16:40:00,
2013-08-14 11:45:00,76.1,61.2,30.06,East,79,5.0,12.0,60,0.00,CLR,,0.00,WeatherDisplay:10.37,2013-08-14 16:45:00,
2013-08-14 11:50:00,75.1,61.7,30.06,East,79,1.0,7.0,63,0.00,CLR,,0.00,WeatherDisplay:10.37,2013-08-14 16:50:00,
2013-08-14 11:56:00,75.3,60.9,30.06,East,79,2.3,2.3,61,0.00,CLR,,0.00,WeatherDisplay:10.37,2013-08-14 16:56:00,
2013-08-14 12:01:00,75.5,62.0,30.06,East,79,1.2,1.2,63,0.00,CLR,,0.00,WeatherDisplay:10.37,2013-08-14 17:01:00,
2013-08-14 12:06:00,76.2,62.2,30.06,East,79,2.3,2.3,62,0.00,CLR,,0.00,WeatherDisplay:10.37,2013-08-14 17:06:00,
2013-08-14 12:11:00,76.4,62.0,30.06,East,79,4.6,4.6,61,0.00,CLR,,0.00,WeatherDisplay:10.37,2013-08-14 17:11:00,
2013-08-14 12:16:00,75.9,61.5,30.05,East,79,3.5,0.0,61,0.00,CLR,,0.00,WeatherDisplay:10.37,2013-08-14 17:16:00,
2013-08-14 12:21:00,75.4,61.0,30.05,East,79,5.8,5.8,61,0.00,CLR,,0.00,WeatherDisplay:10.37,2013-08-14 17:21:00,
2013-08-14 12:26:00,75.5,61.6,30.05,East,79,0.0,0.0,62,0.00,CLR,,0.00,WeatherDisplay:10.37,2013-08-14 17:26:00,
2013-08-14 12:31:00,75.7,60.4,30.05,East,79,2.3,0.0,59,0.00,CLR,,0.00,WeatherDisplay:10.37,2013-08-14 17:31:00,
2013-08-14 12:36:00,75.3,60.5,30.05,East,79,3.5,3.5,60,0.00,CLR,,0.00,WeatherDisplay:10.37,2013-08-14 17:36:00,
2013-08-14 12:41:00,75.4,61.5,30.05,East,79,3.5,3.5,62,0.00,CLR,,0.00,WeatherDisplay:10.37,2013-08-14 17:41:00,
2013-08-14 12:46:00,75.8,61.8,30.04,East,79,1.0,1.2,62,0.00,CLR,,0.00,WeatherDisplay:10.37,2013-08-14 17:46:00,
2013-08-14 12:52:00,76.6,62.1,30.04,East,79,1.2,1.2,61,0.00,CLR,,0.00,WeatherDisplay:10.37,2013-08-14 17:52:00,
2013-08-14 12:57:00,77.1,61.2,30.04,East,79,6.9,6.9,58,0.00,CLR,,0.00,WeatherDisplay:10.37,2013-08-14 17:57:00,
2013-08-14 13:02:00,77.0,61.1,30.04,East,79,4.6,4.6,58,0.00,CLR,,0.00,WeatherDisplay:10.37,2013-08-14 18:02:00,
2013-08-14 13:07:00,76.7,61.8,30.04,East,79,3.5,3.5,60,0.00,CLR,,0.00,WeatherDisplay:10.37,2013-08-14 18:07:00,
2013-08-14 13:13:00,76.2,60.8,30.03,East,79,5.8,5.8,59,0.00,CLR,,0.00,WeatherDisplay:10.37,2013-08-14 18:13:00,
2013-08-14 13:18:00,76.0,60.2,30.03,East,79,3.5,3.5,58,0.00,CLR,,0.00,WeatherDisplay:10.37,2013-08-14 18:18:00,
2013-08-14 13:24:00,76.1,61.2,30.03,East,79,3.5,3.5,60,0.00,CLR,,0.00,WeatherDisplay:10.37,2013-08-14 18:24:00,
2013-08-14 13:30:00,76.6,60.7,30.03,East,79,0.0,5.0,58,0.00,CLR,,0.00,WeatherDisplay:10.37,2013-08-14 18:30:00,
2013-08-14 13:35:00,76.9,62.0,30.03,East,79,3.0,3.0,60,0.00,CLR,,0.00,WeatherDisplay:10.37,2013-08-14 18:35:00,
2013-08-14 13:40:00,77.1,61.2,30.03,East,79,0.0,0.0,58,0.00,CLR,,0.00,WeatherDisplay:10.37,2013-08-14 18:40:00,
2013-08-14 13:45:00,76.5,60.6,30.03,East,79,1.2,1.2,58,0.00,CLR,,0.00,WeatherDisplay:10.37,2013-08-14 18:45:00,
2013-08-14 13:50:00,76.3,60.5,30.03,East,79,0.0,0.0,58,0.00,CLR,,0.00,WeatherDisplay:10.37,2013-08-14 18:50:00,
2013-08-14 13:55:00,76.2,59.9,30.03,East,79,4.6,4.6,57,0.00,CLR,,0.00,WeatherDisplay:10.37,2013-08-14 18:55:00,
2013-08-14 14:00:00,76.6,61.7,30.03,East,79,0.0,0.0,60,0.00,CLR,,0.00,WeatherDisplay:10.37,2013-08-14 19:00:00,
2013-08-14 14:06:00,77.1,59.7,30.03,East,79,3.5,3.5,55,0.00,CLR,,0.00,WeatherDisplay:10.37,2013-08-14 19:06:00,
2013-08-14 14:12:00,78.0,62.5,30.02,East,79,0.0,0.0,59,0.00,CLR,,0.00,WeatherDisplay:10.37,2013-08-14 19:12:00,
2013-08-14 14:17:00,79.0,62.0,30.02,East,79,1.2,1.2,56,0.00,CLR,,0.00,WeatherDisplay:10.37,2013-08-14 19:17:00,
2013-08-14 14:22:00,79.2,61.1,30.02,East,79,4.0,4.0,54,0.00,CLR,,0.00,WeatherDisplay:10.37,2013-08-14 19:22:00,
2013-08-14 14:27:00,78.7,60.7,30.02,East,79,1.2,0.0,54,0.00,CLR,,0.00,WeatherDisplay:10.37,2013-08-14 19:27:00,
2013-08-14 14:33:00,78.3,60.8,30.02,East,79,0.0,0.0,55,0.00,CLR,,0.00,WeatherDisplay:10.37,2013-08-14 19:33:00,
2013-08-14 14:38:00,78.2,61.2,30.02,East,79,0.0,0.0,56,0.00,CLR,,0.00,WeatherDisplay:10.37,2013-08-14 19:38:00,
2013-08-14 14:43:00,77.8,60.3,30.01,East,79,2.3,2.3,55,0.00,CLR,,0.00,WeatherDisplay:10.37,2013-08-14 19:43:00,
2013-08-14 14:48:00,77.8,60.8,30.01,East,79,2.3,2.3,56,0.00,CLR,,0.00,WeatherDisplay:10.37,2013-08-14 19:48:00,
2013-08-14 14:53:00,78.2,59.1,30.01,East,79,4.6,4.6,52,0.00,CLR,,0.00,WeatherDisplay:10.37,2013-08-14 19:53:00,
2013-08-14 14:58:00,78.3,59.2,30.01,East,79,1.2,1.2,52,0.00,CLR,,0.00,WeatherDisplay:10.37,2013-08-14 19:58:00,
2013-08-14 15:03:00,78.7,58.5,30.01,East,79,0.0,0.0,50,0.00,CLR,,0.00,WeatherDisplay:10.37,2013-08-14 20:03:00,
2013-08-14 15:08:00,79.5,58.7,30.01,East,79,0.0,0.1,49,0.00,CLR,,0.00,WeatherDisplay:10.37,2013-08-14 20:08:00,
2013-08-14 15:13:00,80.0,60.8,30.01,East,79,3.5,3.5,52,0.00,CLR,,0.00,WeatherDisplay:10.37,2013-08-14 20:13:00,
2013-08-14 15:18:00,79.8,61.1,30.00,East,79,0.0,0.0,53,0.00,CLR,,0.00,WeatherDisplay:10.37,2013-08-14 20:18:00,
2013-08-14 15:24:00,79.3,60.1,30.00,East,79,0.0,0.6,52,0.00,CLR,,0.00,WeatherDisplay:10.37,2013-08-14 20:24:00,
2013-08-14 15:30:00,78.6,61.1,30.00,East,79,0.0,0.0,55,0.00,CLR,,0.00,WeatherDisplay:10.37,2013-08-14 20:30:00,
2013-08-14 15:35:00,78.0,60.5,30.00,East,79,0.0,0.0,55,0.00,CLR,,0.00,WeatherDisplay:10.37,2013-08-14 20:35:00,
2013-08-14 15:40:00,77.5,61.1,30.00,East,79,0.0,0.0,57,0.00,CLR,,0.00,WeatherDisplay:10.37,2013-08-14 20:40:00,
2013-08-14 15:45:00,77.4,60.5,30.00,East,79,0.0,0.0,56,0.00,CLR,,0.00,WeatherDisplay:10.37,2013-08-14 20:45:00,
2013-08-14 15:50:00,77.2,59.3,30.00,East,79,0.0,0.0,54,0.00,CLR,,0.00,WeatherDisplay:10.37,2013-08-14 20:50:00,
2013-08-14 15:55:00,77.4,61.9,30.00,East,79,1.2,0.0,59,0.00,CLR,,0.00,WeatherDisplay:10.37,2013-08-14 20:55:00,
2013-08-14 16:01:00,77.5,62.0,29.99,East,79,4.0,4.0,59,0.00,CLR,,0.00,WeatherDisplay:10.37,2013-08-14 21:01:00,
2013-08-14 16:06:00,77.4,60.5,30.00,East,79,4.0,4.0,56,0.00,CLR,,0.00,WeatherDisplay:10.37,2013-08-14 21:06:00,
2013-08-14 16:11:00,77.0,60.1,30.00,East,79,0.0,0.0,56,0.00,CLR,,0.00,WeatherDisplay:10.37,2013-08-14 21:11:00,
2013-08-14 16:16:00,77.7,60.8,29.99,East,79,0.0,0.0,56,0.00,CLR,,0.00,WeatherDisplay:10.37,2013-08-14 21:16:00,
2013-08-14 16:21:00,78.5,61.0,29.99,East,79,1.2,0.0,55,0.00,CLR,,0.00,WeatherDisplay:10.37,2013-08-14 21:21:00,
2013-08-14 16:26:00,78.8,61.3,29.99,East,79,0.0,0.0,55,0.00,CLR,,0.00,WeatherDisplay:10.37,2013-08-14 21:26:00,
2013-08-14 16:31:00,79.0,61.5,29.99,East,79,0.0,0.0,55,0.00,CLR,,0.00,WeatherDisplay:10.37,2013-08-14 21:31:00,
2013-08-14 16:36:00,79.2,61.6,29.99,East,79,0.0,0.0,55,0.00,CLR,,0.00,WeatherDisplay:10.37,2013-08-14 21:36:00,
2013-08-14 16:41:00,79.2,59.5,29.99,East,79,1.2,1.2,51,0.00,CLR,,0.00,WeatherDisplay:10.37,2013-08-14 21:41:00,
2013-08-14 16:46:00,79.0,60.9,29.98,East,79,1.2,0.0,54,0.00,CLR,,0.00,WeatherDisplay:10.37,2013-08-14 21:46:00,
2013-08-14 16:51:00,78.5,60.5,29.98,East,79,1.2,1.2,54,0.00,CLR,,0.00,WeatherDisplay:10.37,2013-08-14 21:51:00,
2013-08-14 16:56:00,78.0,61.0,29.98,East,79,1.2,1.2,56,0.00,CLR,,0.00,WeatherDisplay:10.37,2013-08-14 21:56:00,
2013-08-14 17:01:00,77.8,60.8,29.98,East,79,0.0,0.0,56,0.00,CLR,,0.00,WeatherDisplay:10.37,2013-08-14 22:01:00,
2013-08-14 17:06:00,77.8,61.8,29.98,East,79,0.0,0.0,58,0.00,CLR,,0.00,WeatherDisplay:10.37,2013-08-14 22:06:00,
2013-08-14 17:11:00,77.8,60.8,29.98,East,79,0.0,0.0,56,0.00,CLR,,0.00,WeatherDisplay:10.37,2013-08-14 22:11:00,
2013-08-14 17:16:00,77.7,60.8,29.98,East,79,0.0,0.0,56,0.00,CLR,,0.00,WeatherDisplay:10.37,2013-08-14 22:16:00,
2013-08-14 17:21:00,77.2,61.3,29.98,East,79,0.0,0.0,58,0.00,CLR,,0.00,WeatherDisplay:10.37,2013-08-14 22:21:00,
2013-08-14 17:26:00,76.9,61.0,29.98,East,79,3.0,3.0,58,0.00,CLR,,0.00,WeatherDisplay:10.37,2013-08-14 22:26:00,
2013-08-14 17:32:00,76.4,60.0,29.98,East,79,1.2,1.2,57,0.00,CLR,,0.00,WeatherDisplay:10.37,2013-08-14 22:32:00,
2013-08-14 17:37:00,76.6,60.7,29.98,East,79,0.0,0.0,58,0.00,CLR,,0.00,WeatherDisplay:10.37,2013-08-14 22:37:00,
2013-08-14 17:42:00,76.9,60.5,29.98,East,79,2.3,2.3,57,0.00,CLR,,0.00,WeatherDisplay:10.37,2013-08-14 22:42:00,
2013-08-14 17:47:00,77.2,60.3,29.98,East,79,0.0,0.0,56,0.00,CLR,,0.00,WeatherDisplay:10.37,2013-08-14 22:47:00,
2013-08-14 17:52:00,77.3,60.4,29.98,East,79,1.2,0.0,56,0.00,CLR,,0.00,WeatherDisplay:10.37,2013-08-14 22:52:00,
2013-08-14 17:57:00,77.2,59.8,29.98,East,79,3.5,3.5,55,0.00,CLR,,0.00,WeatherDisplay:10.37,2013-08-14 22:57:00,
2013-08-14 18:02:00,76.6,60.2,29.98,East,79,1.0,0.0,57,0.00,CLR,,0.00,WeatherDisplay:10.37,2013-08-14 23:02:00,
2013-08-14 18:07:00,76.3,60.4,29.98,East,79,0.0,0.0,58,0.00,CLR,,0.00,WeatherDisplay:10.37,2013-08-14 23:07:00,
2013-08-14 18:12:00,76.0,60.2,29.97,East,79,0.0,0.0,58,0.00,CLR,,0.00,WeatherDisplay:10.37,2013-08-14 23:12:00,
2013-08-14 18:17:00,75.7,59.9,29.97,East,79,3.0,3.0,58,0.00,CLR,,0.00,WeatherDisplay:10.37,2013-08-14 23:17:00,
2013-08-14 18:22:00,75.3,59.5,29.97,East,79,1.2,0.0,58,0.00,CLR,,0.00,WeatherDisplay:10.37,2013-08-14 23:22:00,
2013-08-14 18:27:00,75.0,59.2,29.97,East,79,1.2,0.0,58,0.00,CLR,,0.00,WeatherDisplay:10.37,2013-08-14 23:27:00,
2013-08-14 18:32:00,74.8,59.5,29.97,East,79,1.2,0.0,59,0.00,CLR,,0.00,WeatherDisplay:10.37,2013-08-14 23:32:00,
2013-08-14 18:37:00,74.5,59.2,29.97,East,79,1.2,0.0,59,0.00,CLR,,0.00,WeatherDisplay:10.37,2013-08-14 23:37:00,
2013-08-14 18:42:00,74.2,58.9,29.97,East,79,3.5,3.5,59,0.00,CLR,,0.00,WeatherDisplay:10.37,2013-08-14 23:42:00,
2013-08-14 18:47:00,73.9,58.7,29.97,East,79,10.4,10.4,59,0.00,CLR,,0.00,WeatherDisplay:10.37,2013-08-14 23:47:00,
2013-08-14 18:52:00,73.6,58.9,29.97,East,79,3.5,3.5,60,0.00,CLR,,0.00,WeatherDisplay:10.37,2013-08-14 23:52:00,
2013-08-14 18:57:00,73.5,58.8,29.97,East,79,1.2,1.2,60,0.00,CLR,,0.00,WeatherDisplay:10.37,2013-08-14 23:57:00,
2013-08-14 19:02:00,73.3,59.0,29.97,East,79,0.0,0.0,61,0.00,CLR,,0.00,WeatherDisplay:10.37,2013-08-15 00:02:00,
2013-08-14 19:07:00,73.1,58.8,29.97,East,79,0.0,0.0,61,0.00,CLR,,0.00,WeatherDisplay:10.37,2013-08-15 00:07:00,
2013-08-14 19:12:00,73.0,58.3,29.97,East,79,2.3,2.3,60,0.00,CLR,,0.00,WeatherDisplay:10.37,2013-08-15 00:12:00,
2013-08-14 19:17:00,72.8,58.6,29.97,East,79,1.2,1.2,61,0.00,CLR,,0.00,WeatherDisplay:10.37,2013-08-15 00:17:00,
2013-08-14 19:22:00,72.6,58.4,29.97,East,79,0.0,0.0,61,0.00,CLR,,0.00,WeatherDisplay:10.37,2013-08-15 00:22:00,
2013-08-14 19:27:00,72.4,58.2,29.97,East,79,0.0,0.0,61,0.00,CLR,,0.00,WeatherDisplay:10.37,2013-08-15 00:27:00,
2013-08-14 19:32:00,72.2,58.0,29.97,East,79,0.0,0.1,61,0.00,CLR,,0.00,WeatherDisplay:10.37,2013-08-15 00:32:00,
2013-08-14 19:37:00,72.0,57.8,29.97,East,79,1.2,0.0,61,0.00,CLR,,0.00,WeatherDisplay:10.37,2013-08-15 00:37:00,
2013-08-14 19:42:00,71.8,57.6,29.97,East,79,1.2,0.0,61,0.00,CLR,,0.00,WeatherDisplay:10.37,2013-08-15 00:42:00,
2013-08-14 19:47:00,71.6,57.9,29.97,East,79,0.0,0.0,62,0.00,CLR,,0.00,WeatherDisplay:10.37,2013-08-15 00:47:00,
2013-08-14 19:52:00,71.3,58.1,29.97,East,79,1.2,0.0,63,0.00,CLR,,0.00,WeatherDisplay:10.37,2013-08-15 00:52:00,
2013-08-14 19:57:00,71.3,58.1,29.97,East,79,1.0,0.0,63,0.00,CLR,,0.00,WeatherDisplay:10.37,2013-08-15 00:57:00,
2013-08-14 20:02:00,71.0,58.2,29.97,East,79,3.5,3.5,64,0.00,CLR,,0.00,WeatherDisplay:10.37,2013-08-15 01:02:00,
2013-08-14 20:07:00,70.7,58.4,29.97,East,79,0.0,0.0,65,0.00,CLR,,0.00,WeatherDisplay:10.37,2013-08-15 01:07:00,
2013-08-14 20:12:00,70.5,58.2,29.97,East,79,1.2,1.2,65,0.00,CLR,,0.00,WeatherDisplay:10.37,2013-08-15 01:12:00,
2013-08-14 20:17:00,70.3,58.0,29.97,East,79,0.0,0.8,65,0.00,CLR,,0.00,WeatherDisplay:10.37,2013-08-15 01:17:00,
2013-08-14 20:22:00,70.1,58.2,29.97,East,79,0.0,0.0,66,0.00,CLR,,0.00,WeatherDisplay:10.37,2013-08-15 01:22:00,
2013-08-14 20:27:00,69.9,58.4,29.97,East,79,1.0,1.8,67,0.00,CLR,,0.00,WeatherDisplay:10.37,2013-08-15 01:27:00,
2013-08-14 20:32:00,69.8,58.3,29.98,East,79,0.0,0.0,67,0.00,CLR,,0.00,WeatherDisplay:10.37,2013-08-15 01:32:00,
2013-08-14 20:37:00,69.6,58.2,29.98,East,79,3.5,3.5,67,0.00,CLR,,0.00,WeatherDisplay:10.37,2013-08-15 01:37:00,
2013-08-14 20:42:00,69.5,58.1,29.98,East,79,0.0,0.2,67,0.00,CLR,,0.00,WeatherDisplay:10.37,2013-08-15 01:42:00,
2013-08-14 20:47:00,69.3,58.3,29.98,East,79,1.2,0.0,68,0.00,CLR,,0.00,WeatherDisplay:10.37,2013-08-15 01:47:00,
2013-08-14 20:52:00,69.2,58.2,29.98,East,79,0.0,0.0,68,0.00,CLR,,0.00,WeatherDisplay:10.37,2013-08-15 01:52:00,
2013-08-14 20:57:00,69.0,58.0,29.98,East,79,0.0,0.0,68,0.00,CLR,,0.00,WeatherDisplay:10.37,2013-08-15 01:57:00,
2013-08-14 21:03:00,68.8,57.8,29.98,East,79,3.5,3.5,68,0.00,CLR,,0.00,WeatherDisplay:10.37,2013-08-15 02:03:00,
2013-08-14 21:08:00,68.8,57.8,29.98,East,79,2.3,0.0,68,0.00,CLR,,0.00,WeatherDisplay:10.37,2013-08-15 02:08:00,
2013-08-14 21:13:00,68.7,57.7,29.98,East,79,1.2,1.2,68,0.00,CLR,,0.00,WeatherDisplay:10.37,2013-08-15 02:13:00,
2013-08-14 21:18:00,68.7,57.7,29.99,East,79,1.2,1.2,68,0.00,CLR,,0.00,WeatherDisplay:10.37,2013-08-15 02:18:00,
2013-08-14 21:23:00,68.8,57.8,29.99,East,79,3.5,0.0,68,0.00,CLR,,0.00,WeatherDisplay:10.37,2013-08-15 02:23:00,
2013-08-14 21:28:00,68.8,57.8,29.99,East,79,8.0,8.0,68,0.00,CLR,,0.00,WeatherDisplay:10.37,2013-08-15 02:28:00,
2013-08-14 21:33:00,68.8,57.8,29.99,East,79,6.0,6.0,68,0.00,CLR,,0.00,WeatherDisplay:10.37,2013-08-15 02:33:00,
2013-08-14 21:38:00,68.8,57.8,29.99,East,79,2.3,2.3,68,0.00,CLR,,0.00,WeatherDisplay:10.37,2013-08-15 02:38:00,
2013-08-14 21:43:00,68.7,57.7,29.99,East,79,1.2,0.0,68,0.00,CLR,,0.00,WeatherDisplay:10.37,2013-08-15 02:43:00,
2013-08-14 21:48:00,68.6,57.2,29.99,East,79,3.5,3.5,67,0.00,CLR,,0.00,WeatherDisplay:10.37,2013-08-15 02:48:00,
2013-08-14 21:53:00,68.5,57.5,29.99,East,79,0.0,0.1,68,0.00,CLR,,0.00,WeatherDisplay:10.37,2013-08-15 02:53:00,
2013-08-14 21:58:00,68.4,57.0,30.00,East,79,3.5,3.5,67,0.00,CLR,,0.00,WeatherDisplay:10.37,2013-08-15 02:58:00,
2013-08-14 22:03:00,68.4,57.0,29.99,East,79,3.5,3.5,67,0.00,CLR,,0.00,WeatherDisplay:10.37,2013-08-15 03:03:00,
2013-08-14 22:08:00,68.3,57.3,29.99,East,79,3.5,3.5,68,0.00,CLR,,0.00,WeatherDisplay:10.37,2013-08-15 03:08:00,
2013-08-14 22:13:00,68.1,57.1,29.99,East,79,2.3,2.3,68,0.00,CLR,,0.00,WeatherDisplay:10.37,2013-08-15 03:13:00,
2013-08-14 22:18:00,68.0,57.0,29.99,East,79,4.0,4.0,68,0.00,CLR,,0.00,WeatherDisplay:10.37,2013-08-15 03:18:00,
2013-08-14 22:23:00,68.0,57.0,30.00,East,79,3.5,0.0,68,0.00,CLR,,0.00,WeatherDisplay:10.37,2013-08-15 03:23:00,
2013-08-14 22:28:00,67.9,56.9,30.00,East,79,3.5,3.5,68,0.00,CLR,,0.00,WeatherDisplay:10.37,2013-08-15 03:28:00,
2013-08-14 22:33:00,67.7,56.8,30.00,East,79,1.2,1.2,68,0.00,CLR,,0.00,WeatherDisplay:10.37,2013-08-15 03:33:00,
2013-08-14 22:38:00,67.5,57.0,30.00,East,79,3.5,3.5,69,0.00,CLR,,0.00,WeatherDisplay:10.37,2013-08-15 03:38:00,
2013-08-14 22:43:00,67.4,56.9,30.00,East,79,2.3,2.3,69,0.00,CLR,,0.00,WeatherDisplay:10.37,2013-08-15 03:43:00,
2013-08-14 22:48:00,67.3,56.8,30.00,East,79,3.5,3.5,69,0.00,CLR,,0.00,WeatherDisplay:10.37,2013-08-15 03:48:00,
2013-08-14 22:53:00,67.2,56.7,30.00,East,79,0.0,0.1,69,0.00,CLR,,0.00,WeatherDisplay:10.37,2013-08-15 03:53:00,
2013-08-14 22:58:00,67.1,57.0,30.00,East,79,0.0,0.0,70,0.00,CLR,,0.00,WeatherDisplay:10.37,2013-08-15 03:58:00,
2013-08-14 23:01:00,67.1,56.6,30.00,East,79,3.5,3.5,69,0.00,CLR,,0.00,WeatherDisplay:10.37,2013-08-15 04:01:00,
2013-08-14 23:06:00,67.1,56.6,29.99,East,79,3.0,3.0,69,0.00,CLR,,0.00,WeatherDisplay:10.37,2013-08-15 04:06:00,
2013-08-14 23:11:00,67.1,56.6,30.00,East,79,5.0,5.0,69,0.00,CLR,,0.00,WeatherDisplay:10.37,2013-08-15 04:11:00,
2013-08-14 23:16:00,67.2,56.3,29.99,East,79,3.5,3.5,68,0.00,CLR,,0.00,WeatherDisplay:10.37,2013-08-15 04:16:00,
2013-08-14 23:21:00,67.2,55.9,29.99,East,79,6.9,6.9,67,0.00,CLR,,0.00,WeatherDisplay:10.37,2013-08-15 04:21:00,
2013-08-14 23:26:00,67.3,56.0,29.99,East,79,1.0,0.0,67,0.00,CLR,,0.00,WeatherDisplay:10.37,2013-08-15 04:26:00,
2013-08-14 23:31:00,67.3,56.0,29.99,East,79,2.3,2.3,67,0.00,CLR,,0.00,WeatherDisplay:10.37,2013-08-15 04:31:00,
2013-08-14 23:36:00,67.3,56.0,29.99,East,79,2.3,2.3,67,0.00,CLR,,0.00,WeatherDisplay:10.37,2013-08-15 04:36:00,
2013-08-14 23:41:00,67.2,55.9,29.99,East,79,2.3,0.0,67,0.00,CLR,,0.00,WeatherDisplay:10.37,2013-08-15 04:41:00,
2013-08-14 23:46:00,67.2,55.9,29.99,East,79,3.5,3.5,67,0.00,CLR,,0.00,WeatherDisplay:10.37,2013-08-15 04:46:00,
2013-08-14 23:51:00,67.2,55.9,29.99,East,79,1.0,0.0,67,0.00,CLR,,0.00,WeatherDisplay:10.37,2013-08-15 04:51:00,
2013-08-14 23:56:00,67.1,55.8,29.99,East,79,2.3,2.3,67,0.00,CLR,,0.00,WeatherDisplay:10.37,2013-08-15 04:56:00,